Content
SEND FEEDBACK

Daily
Averages
Monthly
Summary
Saint Kitts and Nevis

BASSETERRE, SAINT KITTS AND NEVIS


Home > Caribbean > Saint Kitts and Nevis
Elevation: 157 feet     Latitude: 17 18N     Longitude: 062 40W

WEATHER
 
SELECT A DAY
Number of Records: 108,814;   Date Range: 6/30/96 - 10/21/14
 
SHARE

PRINT THIS DATA

[ ← Previous Day ]
WEATHER ALMANAC - FEBRUARY 13, 2013
[ Next Day → ]
[ °C ]   °F
Weather ElementAverageHighLow
Temperature78.2 °F82.4 °F (11:00 am)75.2 °F (7:00 am)
Dewpoint71.6 °F73.4 °F (11:00 am)66.2 °F (7:00 am)
Humidity78.8 %89 % (1:00 pm)67 % (11:00 am)
Barometer30.03 in30.09 in (11:00 am)30.01 in (7:00 am)
Wind Speed13.6 mph19.6 mph (10:00 am)
Weather ElementAverage
Visibility9.3 mi
Wind DirectionENE (52.5 °)

Weather ElementTotal
Precipitation---
Cooling Degree Days13.8 (Base 65)
Growing Degree Days28.8 (Base 50)
Averaged from 20 records on February 13, 2013
WEATHER CONDITIONS BREAKOUT
WIND DIRECTION BREAKOUT
WEATHER BY HOUR - FEBRUARY 13, 2013
[ °C ]   °F
Local TimeTemperatureDewpointHumidityBarometerVisibilityWind DirectionWind SpeedGust SpeedPrecipitationEventsConditions
7:00 AM75.2 °F66.2 °F73 %30.01 in6.2 miNNE (30°)13.8 mphPartly Cloudy
8:00 AM76.0 °F70.0 °F76 %30.05 in17.0 miNNE (30°)8.1 mphPartly Cloudy
8:00 AM75.2 °F69.8 °F83 %30.04 in6.2 miNNE (30°)8.1 mphScattered Clouds
9:00 AM77.0 °F71.6 °F83 %30.06 in6.2 miENE (60°)11.5 mphMostly Cloudy
10:00 AM80.6 °F71.6 °F74 %30.06 in6.2 miNE (50°)19.6 mphScattered Clouds
11:00 AM82.4 °F73.4 °F74 %30.06 in6.2 miENE (70°)17.3 mphMostly Cloudy
11:00 AM82.0 °F73.0 °F67 %30.09 in17.0 miENE (70°)17.3 mphMostly Cloudy
12:00 PM80.6 °F73.4 °F79 %30.06 in6.2 miNE (40°)16.1 mphMostly Cloudy
1:00 PM77.0 °F73.4 °F89 %30.04 in6.2 miNE (50°)18.4 mphScattered Clouds
2:00 PM78.8 °F73.4 °F83 %30.01 in6.2 miENE (60°)11.5 mphMostly Cloudy
2:00 PM78.0 °F73.0 °F81 %30.03 in18.0 miENE (60°)11.5 mphRainLight Rain Showers
3:00 PM80.6 °F73.4 °F79 %30.01 in6.2 miNE (40°)15.0 mphPartly Cloudy
4:00 PM78.8 °F71.6 °F78 %30.01 in6.2 miNNE (20°)9.2 mphPartly Cloudy
5:00 PM78.0 °F71.0 °F74 %30.01 in22.0 miENE (60°)15.0 mphScattered Clouds
5:00 PM78.8 °F71.6 °F78 %30.01 in6.2 miENE (60°)15.0 mphPartly Cloudy
6:00 PM77.0 °F71.6 °F83 %30.01 in6.2 miENE (70°)11.5 mphScattered Clouds
7:00 PM77.0 °F69.8 °F78 %30.01 in6.2 miENE (70°)12.7 mphPartly Cloudy
8:00 PM77.0 °F71.0 °F78 %30.03 in19.0 miENE (60°)13.8 mphScattered Clouds
8:00 PM77.0 °F71.6 °F83 %30.01 in6.2 miENE (60°)13.8 mphPartly Cloudy
9:00 PM77.0 °F71.6 °F83 %30.04 in6.2 miENE (60°)12.7 mphPartly Cloudy
Hourly data recorded from TKPK, located miles away from Basseterre, Saint Kitts and Nevis







STORIES FROM OUR PARTNERS